CAPE
889 570 641 581 295 133 43 147 98 170 258 109 122 265 184 142 117 83 53 10 4 6 0 0 0 0 0 2 7 8 6 3 2 4 7 11 13 6 20 27 24 32 42
1049 789 443 185 259 419 311 224 46 174 340 368 428 254 227 199 145 54 21 12 38 11 8 2 3 1 0 0 0 0 0 0 3 7 6 9 12 12 6 1 20 36 32
1049 671 349 181 181 162 392 398 190 282 522 583 413 331 330 169 106 31 8 67 86 62 12 3 4 5 2 0 0 2 0 0 0 3 5 5 1 8 10 8 5 8 16
1161 876 669 383 197 50 45 373 590 157 420 667 490 388 280 143 15 0 8 77 102 52 16 2 2 2 1 0 0 0 0 0 0 0 3 6 21 25 17 17 10 9 11
827 842 535 457 207 96 38 99 545 475 493 781 486 347 185 42 0 0 0 23 42 12 0 0 0 0 0 0 0 0 0 0 0 0 0 0 3 8 19 18 6 4 9
604 654 649 394 104 46 11 61 450 423 511 825 431 286 84 3 0 0 0 0 3 0 0 0 0 0 0 0 0 0 0 0 0 0 0 0 3 14 10 9 10 9 11
342 253 456 531 138 47 54 58 591 162 521 644 417 280 60 3 0 0 0 0 0 0 0 0 0 0 0 0 0 0 0 0 0 0 0 0 7 11 12 12 2 1 3
617 295 246 283 153 50 18 10 554 297 441 639 445 273 67 1 0 0 0 0 0 0 0 0 0 0 0 0 0 0 0 0 0 0 0 0 11 12 11 11 12 11 14
633 667 389 202 165 0 0 3 138 385 349 484 389 341 180 0 0 0 0 0 0 0 0 0 0 0 0 0 0 0 0 0 0 0 0 2 13 12 4 10 13 9 7
334 374 267 216 69 1 0 26 151 195 451 571 437 298 71 0 0 0 0 0 0 0 0 0 0 0 0 0 0 0 0 0 0 0 0 2 11 9 8 10 6 7 6
241 127 142 118 29 0 0 0 98 298 507 500 313 198 21 0 0 0 0 0 0 0 0 0 0 0 0 0 0 0 0 0 0 0 0 2 5 8 4 6 6 7 6
73 1 3 0 7 8 1 0 69 333 227 229 229 65 0 0 0 0 0 0 0 0 0 0 0 0 0 0 0 0 0 0 0 0 0 0 7 10 12 12 5 7 8
18 0 2 0 1 0 18 29 44 38 53 125 118 2 0 0 0 0 0 0 0 0 0 0 0 0 0 0 0 0 0 0 0 0 0 0 9 12 14 17 4 4 5
3 0 0 6 4 0 0 0 0 48 80 114 37 0 0 0 0 0 0 0 0 0 0 0 0 0 0 0 0 0 0 0 0 0 0 0 13 20 23 15 10 2 4
1 1 0 0 0 7 3 12 1 32 69 35 16 0 0 0 0 0 0 0 0 0 0 0 0 0 0 0 0 0 0 0 0 0 0 0 8 17 19 8 8 6 1
2 2 1 1 0 0 9 0 0 8 3 4 0 0 0 0 0 0 0 0 0 0 0 0 0 0 0 0 0 0 0 0 0 0 0 0 0 3 18 13 10 2 3
2 1 1 0 2 0 4 0 0 0 5 0 0 0 0 0 0 0 0 0 0 0 0 0 0 0 0 0 0 0 0 0 0 0 0 0 0 0 0 0 2 2 0
0 0 0 1 0 0 0 0 0 16 18 26 2 0 0 0 1 1 0 0 0 0 0 0 0 0 0 0 0 0 0 0 0 0 0 0 0 0 0 0 0 0 0
1 0 1 0 0 0 0 0 1 2 13 32 26 14 6 4 16 17 9 0 0 0 0 0 0 0 0 0 0 0 0 0 0 0 0 0 0 0 0 0 0 0 0
1 1 0 0 0 0 0 0 0 3 0 1 20 59 61 42 61 58 37 44 1 0 0 0 0 0 0 0 0 0 0 0 0 0 0 0 0 0 0 0 0 0 0
1 1 1 1 0 0 1 1 5 1 0 0 0 1 22 34 72 61 34 41 13 0 0 0 0 0 0 0 0 0 0 0 0 0 0 0 0 0 0 0 0 0 0
0 0 0 0 0 0 0 0 0 0 0 0 0 0 0 3 8 21 25 14 9 0 0 0 0 0 0 0 0 0 0 0 0 0 0 0 0 0 0 0 0 0 0
0 0 0 0 0 0 0 0 0 0 0 0 0 0 0 0 0 8 26 27 0 0 0 0 0 0 0 0 0 0 0 0 0 0 0 0 0 0 0 0 0 0 0
0 0 0 0 0 0 0 0 0 0 0 0 0 0 0 0 0 5 87 62 20 0 0 0 0 0 0 0 0 0 0 0 0 0 0 0 0 0 0 0 0 0 0
0 0 0 0 0 0 0 0 0 0 0 0 0 0 0 0 0 0 45 95 34 2 0 0 0 0 0 0 0 0 0 0 0 0 0 0 0 0 0 0 0 0 0
0 0 0 0 0 0 0 0 0 0 0 0 0 0 0 0 0 0 0 0 13 1 0 0 0 0 0 0 0 0 0 0 0 0 0 0 0 0 0 0 0 0 0
CIN
-26 -77 -56 -71 -83 -85 -165 -94 -164 -148 -111 -161 -170 -120 -151 -146 -133 -204 -251 -353 -429 -393 0 0 0 0 0 0 0 0 0 0 -1 0 0 0 0 -2 0 0 -2 -1 0
-33 -42 -94 -234 -126 -34 -59 -95 -148 -149 -83 -62 -44 -63 -95 -146 -144 -159 -385 -462 -322 -358 -410 0 0 -1 0 0 0 0 0 0 -2 0 0 0 -1 -1 -1 0 0 0 0
-1 -58 -190 -223 -153 -115 -8 -43 -122 -132 -19 -2 -9 -21 -64 -139 -117 -274 -390 -274 -260 -280 -359 -26 0 0 0 0 0 0 0 0 0 -2 -1 -7 -1 0 0 0 0 -1 -3
0 -19 -63 -124 -160 -195 -299 -1 -21 -110 -48 0 0 -18 -124 -119 -219 0 -424 -241 -182 -261 -382 -85 0 0 0 0 0 0 0 0 0 -1 -10 -4 -4 -2 -1 -1 -1 -1 -1
-68 -16 -62 -73 -167 -157 -68 -17 -12 -31 -21 0 -2 -6 -105 -147 0 0 0 -302 -238 -310 0 0 0 0 0 0 0 0 0 0 0 0 0 0 -3 -1 -1 -1 0 -1 0
-155 -49 -15 -31 -117 -115 -169 -6 -27 -26 -7 0 0 -9 -72 -108 0 0 0 0 -250 0 0 0 0 0 0 0 0 0 0 0 0 0 0 0 -2 -1 -1 0 -1 0 0
-262 -245 -57 -14 -32 -67 -13 -18 0 -128 -2 -1 0 -7 -113 -238 0 0 0 0 0 0 0 0 0 0 0 0 0 0 0 0 0 0 0 0 -1 -1 -1 0 -4 -2 -3
-75 -184 -73 -8 -18 -19 -21 -1 0 -46 -4 -2 0 -6 -61 -103 0 0 0 0 0 0 0 0 0 0 0 0 0 0 0 0 0 0 0 -1 0 -1 -1 0 0 0 0
-33 -13 -6 -5 -1 -16 0 -1 -3 -22 -6 -2 -1 -3 -25 0 0 0 0 0 0 0 0 0 0 0 0 0 0 0 0 0 0 0 0 -3 -1 -1 0 -1 0 0 0
-52 -47 -49 -19 -17 -98 0 -32 -3 -20 -7 -3 -2 -4 -45 0 0 0 0 0 0 0 0 0 0 0 0 0 0 0 0 0 0 0 0 -1 0 -1 -1 0 0 -1 -1
-50 -123 -53 -32 -15 0 0 0 -5 -14 -11 -5 -11 -53 -28 0 0 0 0 0 0 0 0 0 0 0 0 0 0 0 0 0 0 0 0 0 -1 0 -1 -1 0 -1 0
-77 0 -76 0 -1 0 0 0 -6 -8 -21 -26 -22 -78 0 0 0 0 0 0 0 0 0 0 0 0 0 0 0 0 0 0 0 0 0 0 0 -1 -1 -2 -1 0 0
-130 0 0 0 -81 0 0 -15 -5 -16 -19 -60 -70 -146 0 0 0 0 0 0 0 0 0 0 0 0 0 0 0 0 0 0 0 0 0 0 -1 -1 -1 -1 -1 0 0
-46 0 0 0 0 0 0 0 0 -16 -35 -91 -102 0 0 0 0 0 0 0 0 0 0 0 0 0 0 0 0 0 0 0 0 0 0 0 -2 0 -2 -2 -1 -1 0
0 0 0 0 0 -4 0 -2 -3 -53 -91 -87 -76 0 0 0 0 0 0 0 0 0 0 0 0 0 0 0 0 0 0 0 0 0 0 0 -2 -1 0 0 -1 0 -1
0 0 0 0 0 0 -4 0 0 -112 -29 -41 0 0 0 0 0 0 0 0 0 0 0 0 0 0 0 0 0 0 0 0 0 0 0 0 0 -1 -1 0 -1 -1 0
0 0 0 0 -1 0 -23 0 0 0 -115 0 0 0 0 0 0 0 0 0 0 0 0 0 0 0 0 0 0 0 0 0 0 0 0 0 0 0 0 0 0 0 0
0 0 0 0 0 0 -2 0 0 -67 -98 -113 -93 0 0 0 -152 -229 0 0 0 0 0 0 0 0 0 0 0 0 0 0 0 0 0 0 0 0 0 0 0 0 0
0 0 0 0 0 0 0 0 -18 -46 -70 -78 -89 -109 -120 -108 -168 -177 -179 0 0 0 0 0 0 0 0 0 0 0 0 0 0 0 0 0 0 0 0 0 0 0 0
0 0 0 0 0 0 -2 0 0 -46 -27 -28 -93 -72 -78 -93 -133 -127 -121 -138 -23 0 0 0 0 0 0 0 0 0 0 0 0 0 0 0 0 0 0 0 0 0 0
0 0 0 0 0 0 -13 -16 -36 -5 0 0 0 -120 -115 -114 -116 -101 -100 -94 -130 0 0 0 0 0 0 0 0 0 0 0 0 0 0 0 0 0 0 0 0 0 0
0 0 0 0 0 0 0 0 0 0 0 0 0 0 0 -96 -114 -101 -100 -106 -104 0 0 0 0 0 0 0 0 0 0 0 0 0 0 0 0 0 0 0 0 0 0
0 0 0 0 0 0 0 0 0 0 0 0 0 0 0 0 0 -109 -105 -83 0 0 0 0 0 0 0 0 0 0 0 0 0 0 0 0 0 0 0 0 0 0 0
0 0 0 0 0 0 0 0 0 0 0 0 0 0 0 0 0 -106 -74 -65 -99 0 0 0 0 0 0 0 0 0 0 0 0 0 0 0 0 0 0 0 0 0 0
0 0 0 0 0 0 0 0 0 0 0 0 0 0 0 0 0 0 -68 -68 -71 -94 0 0 0 0 0 0 0 0 0 0 0 0 0 0 0 0 0 0 0 0 0
0 0 0 0 0 0 0 0 0 0 0 0 0 0 0 0 0 0 0 0 -93 -67 0 0 0 0 0 0 0 0 0 0 0 0 0 0 0 0 0 0 0 0 0
Wind_Speed
9 3 3 2 3 4 9 5 5 4 5 9 13 14 16 16 16 18 18 19 19 20 21 21 21 21 22 22 22 23 23 23 24 24 24 24 25 25 24 24 23 23 24
4 5 4 4 3 2 1 5 9 8 6 8 13 14 15 16 17 19 20 21 22 21 21 21 21 22 22 22 22 22 22 21 23 23 24 25 25 24 24 23 24 24 25
3 4 6 5 2 2 6 7 10 8 7 10 13 15 17 18 19 19 19 20 21 21 21 20 20 19 20 21 20 22 22 21 21 22 23 24 23 24 24 23 23 23 23
3 4 7 7 4 3 6 10 9 10 10 11 15 18 19 19 19 19 20 21 21 21 20 19 17 17 16 16 18 20 20 21 21 22 20 21 22 23 23 24 24 24 24
2 3 5 7 5 3 11 15 12 12 13 13 15 17 18 19 18 20 21 21 21 19 18 17 16 16 16 17 17 19 20 21 20 20 19 20 19 21 22 23 23 24 24
4 5 4 6 4 6 9 36 15 14 13 13 14 15 17 18 19 19 19 19 18 17 16 15 15 18 18 18 18 19 20 20 19 19 18 19 20 21 22 22 23 24 25
6 7 7 6 4 6 8 26 17 16 15 15 15 15 17 17 18 18 18 18 17 17 17 17 17 17 17 17 18 19 19 20 19 18 18 19 20 22 23 23 24 24 25
7 7 9 9 7 9 7 16 23 19 15 14 14 14 15 16 17 17 18 17 16 16 18 19 17 17 16 15 17 17 17 18 17 17 18 19 21 22 23 24 24 24 25
5 5 4 9 12 12 11 16 20 16 17 15 15 14 14 15 16 16 16 17 16 16 18 18 16 14 14 13 14 15 14 16 16 17 18 19 20 22 22 23 24 24 25
6 5 2 6 7 7 11 20 17 18 18 17 15 14 14 15 15 15 15 15 15 17 19 17 13 12 13 12 13 12 13 13 16 17 18 19 20 21 22 22 23 24 24
6 6 3 1 6 13 15 17 18 20 19 17 16 16 13 12 12 12 13 13 13 16 16 16 13 12 12 12 11 10 11 12 15 16 17 18 19 20 21 21 22 23 24
6 6 10 10 3 13 16 19 31 19 19 16 15 14 11 12 11 15 11 11 10 13 13 11 14 11 9 5 3 8 10 12 14 16 15 17 18 18 19 19 20 21 23
8 7 12 19 20 18 14 18 25 28 21 15 14 13 12 10 10 10 9 9 7 10 8 9 10 5 5 3 3 6 8 11 14 15 15 16 16 17 17 18 18 19 20
7 9 15 13 20 21 15 21 18 18 18 14 13 14 13 10 8 11 11 9 5 9 8 8 6 3 3 3 2 5 8 11 13 15 15 15 15 15 16 17 17 18 18
5 8 10 11 15 18 31 31 34 17 24 13 13 13 12 10 8 9 11 6 2 7 7 6 4 7 6 3 2 6 8 11 13 14 14 13 13 13 13 14 15 15 16
3 8 8 16 27 31 33 24 19 14 13 15 13 12 11 11 10 6 8 4 2 4 6 4 3 11 9 6 4 5 8 10 12 13 13 12 11 11 11 12 13 13 14
7 6 12 13 8 8 9 10 12 12 14 13 12 12 11 11 8 8 6 3 2 2 3 6 10 12 11 9 7 6 7 9 10 12 12 12 10 10 11 11 11 12 12
3 5 5 7 11 12 12 10 9 14 13 11 11 11 10 9 8 5 4 2 1 2 8 14 15 17 13 12 8 7 7 8 9 11 11 11 11 11 10 10 10 11 11
8 2 6 7 10 14 9 9 15 13 11 11 10 9 8 9 7 5 3 5 7 13 22 18 20 18 15 15 13 9 7 7 8 9 10 9 9 9 10 11 10 10 10
18 13 5 7 11 15 13 14 17 16 21 13 9 9 9 7 6 7 9 14 32 30 26 13 10 19 18 12 15 14 15 14 12 11 10 10 9 9 10 12 11 10 9
19 23 25 22 8 10 15 13 17 15 37 38 14 38 36 14 14 30 34 33 32 32 9 9 14 14 16 15 17 19 20 18 15 14 13 12 10 11 11 11 11 10 10
18 21 25 25 28 32 34 37 38 40 38 39 38 39 38 37 32 34 35 34 23 18 16 11 12 16 18 12 18 21 21 21 18 16 16 14 13 16 13 11 10 10 10
18 20 22 25 25 29 33 35 37 37 37 38 39 39 40 38 36 35 37 32 7 13 9 13 13 11 14 15 17 18 21 21 21 19 15 12 14 13 15 13 12 13 13
20 20 22 24 24 27 29 31 32 35 35 38 39 40 41 40 40 38 38 34 20 22 17 14 12 12 13 11 15 16 19 19 21 26 22 20 15 14 14 15 15 15 14
18 19 19 21 21 25 27 25 25 28 29 36 38 37 40 41 40 38 25 12 20 20 20 15 14 14 14 15 13 17 18 20 21 22 27 25 19 17 16 16 17 18 17
18 18 19 20 21 22 25 26 24 23 22 23 28 31 33 34 35 32 21 12 13 20 19 18 17 16 16 18 16 16 16 18 17 20 22 22 22 21 19 20 22 21 19
Wind_Direction
266 187 138 131 123 104 101 182 137 176 154 121 113 107 103 97 92 88 86 83 80 77 75 72 67 64 62 60 57 55 53 51 52 48 48 47 48 48 43 41 38 38 38
243 196 168 147 118 46 61 164 152 154 170 136 118 111 105 98 94 92 91 90 87 82 78 74 71 68 64 60 56 54 52 47 48 50 50 50 48 48 43 40 40 39 39
204 194 165 166 184 347 299 212 161 144 162 131 122 115 106 101 99 94 91 89 87 84 81 77 73 69 66 60 56 55 53 50 48 47 47 49 46 47 46 43 39 36 33
113 159 149 150 160 153 153 243 197 173 164 140 126 118 110 106 100 94 92 90 88 85 80 75 71 67 63 55 59 54 53 51 50 48 40 41 43 44 43 41 39 38 37
297 171 164 150 155 189 268 217 192 163 155 144 131 122 113 107 99 96 92 90 86 81 77 70 65 64 62 67 63 54 55 54 49 44 41 42 37 38 38 38 39 37 35
256 242 210 191 181 167 223 218 187 162 166 150 138 126 116 108 102 97 92 88 85 79 70 58 61 79 73 73 63 58 56 53 47 44 40 38 39 41 39 37 36 39 39
241 263 251 194 161 183 188 216 194 156 178 149 141 130 119 110 104 97 91 88 83 77 70 61 72 79 76 72 67 62 56 54 49 45 41 40 41 42 42 40 40 40 40
281 259 215 192 173 168 171 209 205 150 168 170 148 135 123 113 105 98 92 87 83 76 70 68 72 79 77 72 68 63 56 50 46 42 40 39 44 45 44 44 44 42 41
346 328 193 191 179 153 153 210 211 165 161 164 152 139 128 115 106 98 93 89 82 77 72 68 71 76 80 74 66 60 53 49 45 43 43 43 47 46 44 46 45 43 41
351 7 53 146 162 158 151 207 192 167 169 173 155 148 131 118 107 101 94 90 83 79 75 68 64 70 82 76 69 60 52 45 45 44 45 50 48 48 47 44 44 42 42
347 326 328 215 195 165 154 172 179 175 168 163 159 143 137 117 109 98 94 89 83 81 72 62 61 71 81 77 68 54 46 42 43 41 45 47 48 46 45 44 42 44 42
79 7 63 43 309 173 168 161 201 178 171 170 165 166 141 124 116 102 100 94 79 77 66 57 66 70 75 56 24 47 46 45 40 41 37 43 47 49 46 44 47 47 43
76 51 80 89 101 119 165 191 205 208 203 182 167 162 151 137 116 107 101 88 74 67 53 49 56 41 52 51 30 40 42 40 40 37 36 38 48 50 50 53 48 44 43
82 85 106 93 101 121 139 183 151 200 196 173 170 158 151 144 136 115 106 97 80 71 63 52 53 308 297 273 28 42 40 37 37 34 35 41 49 52 55 53 50 42 45
88 105 116 111 114 121 136 144 150 156 205 193 163 166 160 145 148 125 110 103 65 66 58 58 26 265 274 279 336 47 44 43 41 28 27 43 49 48 47 47 50 48 45
115 117 132 130 140 146 150 140 143 162 184 201 179 186 177 150 141 142 116 116 65 58 58 45 360 252 259 276 306 352 38 39 33 30 22 26 40 33 33 33 34 34 32
277 125 139 140 173 196 180 159 168 180 167 199 185 188 164 152 162 145 135 131 100 41 21 292 264 252 256 275 302 338 33 28 20 27 26 20 26 21 15 18 26 21 20
119 238 166 168 159 162 221 213 201 214 196 187 193 182 176 164 164 162 169 204 250 280 277 261 250 248 264 274 306 330 351 12 19 13 15 17 12 9 13 16 12 10 8
85 188 184 187 176 225 221 216 224 218 210 191 188 192 175 168 177 176 208 261 251 261 243 255 248 257 270 278 293 325 343 352 3 2 1 8 12 8 3 1 0 3 2
113 109 215 226 221 227 234 223 233 234 235 230 205 199 212 200 229 237 250 190 212 227 241 266 273 266 275 294 298 306 312 324 335 336 340 344 350 348 346 346 349 347 351
119 138 145 142 162 222 232 177 231 173 215 205 173 198 203 247 244 226 213 209 225 204 167 269 275 280 285 293 300 305 307 314 319 322 321 321 321 324 326 331 334 336 334
126 135 148 147 152 161 168 178 187 192 205 208 206 205 203 211 226 219 215 227 238 267 269 269 276 281 285 297 302 309 311 313 313 312 312 306 304 312 312 313 318 323 321
136 142 143 148 147 155 167 175 187 192 207 200 201 199 209 218 226 233 220 200 229 271 260 265 271 277 290 296 302 314 317 311 320 323 319 312 307 305 307 305 305 310 308
149 143 147 149 149 156 162 165 173 184 186 196 202 212 220 228 226 235 227 206 269 272 273 266 261 271 285 295 306 307 316 320 319 319 321 318 309 306 306 308 305 302 300
150 149 148 151 154 160 165 163 165 177 180 199 204 203 208 209 207 215 199 220 271 273 275 266 266 268 278 289 292 309 314 315 317 314 317 324 321 318 316 313 311 304 298
158 155 155 156 160 163 167 171 171 172 171 176 185 191 194 196 204 206 204 242 242 274 273 269 266 270 269 282 285 290 302 314 310 314 315 318 318 319 319 320 319 311 300